Time,TemperatureF,DewpointF,PressureIn,WindDirection,WindDirectionDegrees,WindSpeedMPH,WindSpeedGustMPH,Humidity,HourlyPrecipIn,Conditions,Clouds,dailyrainin,SoftwareType,DateUTC
2013-05-05 00:01:00,58.8,47.5,30.03,NE,54,5.0,5.0,66,0.00,,---,0.00,VWS V14.01,2013-05-05 07:01:00,
2013-05-05 00:06:00,58.5,47.6,30.03,ENE,61,4.0,4.0,67,0.00,,---,0.00,VWS V14.01,2013-05-05 07:06:00,
2013-05-05 00:11:00,58.1,47.6,30.03,ENE,61,1.0,3.0,68,0.00,,---,0.00,VWS V14.01,2013-05-05 07:11:00,
2013-05-05 00:16:00,57.8,47.3,30.03,ENE,61,0.0,0.0,68,0.00,,---,0.00,VWS V14.01,2013-05-05 07:16:00,
2013-05-05 00:21:00,57.4,47.3,30.03,ENE,60,2.0,4.0,69,0.00,,---,0.00,VWS V14.01,2013-05-05 07:21:00,
2013-05-05 00:26:00,57.1,47.4,30.03,ENE,67,1.0,2.0,70,0.00,,---,0.00,VWS V14.01,2013-05-05 07:26:00,
2013-05-05 00:31:00,56.7,47.4,30.03,ENE,67,0.0,1.0,71,0.00,,---,0.00,VWS V14.01,2013-05-05 07:31:00,
2013-05-05 00:36:00,56.4,47.1,30.03,ENE,67,2.0,3.0,71,0.00,,---,0.00,VWS V14.01,2013-05-05 07:36:00,
2013-05-05 00:41:00,56.1,47.6,30.03,ENE,62,0.0,0.0,73,0.00,,---,0.00,VWS V14.01,2013-05-05 07:41:00,
2013-05-05 00:46:00,55.8,47.3,30.02,ENE,61,2.0,3.0,73,0.00,,---,0.00,VWS V14.01,2013-05-05 07:46:00,
2013-05-05 00:51:00,55.6,47.1,30.02,ENE,61,0.0,0.0,73,0.00,,---,0.00,VWS V14.01,2013-05-05 07:51:00,
2013-05-05 00:56:00,55.3,46.8,30.02,ENE,74,4.0,4.0,73,0.00,,---,0.00,VWS V14.01,2013-05-05 07:56:00,
2013-05-05 01:01:00,55.1,46.6,30.02,ENE,74,4.0,5.0,73,0.00,,---,0.00,VWS V14.01,2013-05-05 08:01:00,
2013-05-05 01:06:00,55.0,46.9,30.02,ENE,78,2.0,3.0,74,0.00,,---,0.00,VWS V14.01,2013-05-05 08:06:00,
2013-05-05 01:11:00,54.8,46.7,30.02,ENE,75,1.0,3.0,74,0.00,,---,0.00,VWS V14.01,2013-05-05 08:11:00,
2013-05-05 01:16:00,54.6,46.5,30.02,ENE,72,4.0,5.0,74,0.00,,---,0.00,VWS V14.01,2013-05-05 08:16:00,
2013-05-05 01:21:00,54.5,46.0,30.02,ENE,76,3.0,3.0,73,0.00,,---,0.00,VWS V14.01,2013-05-05 08:21:00,
2013-05-05 01:26:00,54.6,45.8,30.02,ENE,72,4.0,5.0,72,0.00,,---,0.00,VWS V14.01,2013-05-05 08:26:00,
2013-05-05 01:31:00,54.7,45.9,30.02,East,80,2.0,4.0,72,0.00,,---,0.00,VWS V14.01,2013-05-05 08:31:00,
2013-05-05 01:36:00,54.7,45.9,30.02,ENE,78,3.0,4.0,72,0.00,,---,0.00,VWS V14.01,2013-05-05 08:36:00,
2013-05-05 01:41:00,54.6,45.4,30.02,ENE,78,3.0,5.0,71,0.00,,---,0.00,VWS V14.01,2013-05-05 08:41:00,
2013-05-05 01:46:00,54.5,45.3,30.02,ENE,71,5.0,5.0,71,0.00,,---,0.00,VWS V14.01,2013-05-05 08:46:00,
2013-05-05 01:51:00,54.5,45.3,30.02,ENE,72,3.0,4.0,71,0.00,,---,0.00,VWS V14.01,2013-05-05 08:51:00,
2013-05-05 01:56:00,54.5,45.3,30.02,ENE,71,3.0,4.0,71,0.00,,---,0.00,VWS V14.01,2013-05-05 08:56:00,
2013-05-05 02:01:00,54.5,45.3,30.02,East,86,3.0,3.0,71,0.00,,---,0.00,VWS V14.01,2013-05-05 09:01:00,
2013-05-05 02:06:00,54.5,45.3,30.02,ESE,102,2.0,5.0,71,0.00,,---,0.00,VWS V14.01,2013-05-05 09:06:00,
2013-05-05 02:11:00,54.4,45.2,30.02,East,90,5.0,6.0,71,0.00,,---,0.00,VWS V14.01,2013-05-05 09:11:00,
2013-05-05 02:16:00,54.2,45.0,30.02,ESE,111,1.0,1.0,71,0.00,,---,0.00,VWS V14.01,2013-05-05 09:16:00,
2013-05-05 02:21:00,53.9,45.1,30.02,NE,45,3.0,5.0,72,0.00,,---,0.00,VWS V14.01,2013-05-05 09:21:00,
2013-05-05 02:26:00,53.6,45.2,30.02,ENE,59,5.0,6.0,73,0.00,,---,0.00,VWS V14.01,2013-05-05 09:26:00,
2013-05-05 02:31:00,53.5,45.1,30.01,NE,48,6.0,7.0,73,0.00,,---,0.00,VWS V14.01,2013-05-05 09:31:00,
2013-05-05 02:36:00,53.4,45.0,30.01,ENE,57,2.0,3.0,73,0.00,,---,0.00,VWS V14.01,2013-05-05 09:36:00,
2013-05-05 02:41:00,53.3,45.2,30.01,ENE,57,0.0,0.0,74,0.00,,---,0.00,VWS V14.01,2013-05-05 09:41:00,
2013-05-05 02:46:00,53.2,45.1,30.02,ENE,57,0.0,1.0,74,0.00,,---,0.00,VWS V14.01,2013-05-05 09:46:00,
2013-05-05 02:51:00,53.0,45.0,30.02,ENE,57,0.0,0.0,74,0.00,,---,0.00,VWS V14.01,2013-05-05 09:51:00,
2013-05-05 02:56:00,52.7,44.7,30.02,ENE,57,2.0,3.0,74,0.00,,---,0.00,VWS V14.01,2013-05-05 09:56:00,
2013-05-05 03:01:00,52.4,44.7,30.02,ENE,57,0.0,0.0,75,0.00,,---,0.00,VWS V14.01,2013-05-05 10:01:00,
2013-05-05 03:06:00,52.3,44.6,30.02,ENE,57,0.0,0.0,75,0.00,,---,0.00,VWS V14.01,2013-05-05 10:06:00,
2013-05-05 03:11:00,52.1,44.4,30.02,ENE,57,0.0,1.0,75,0.00,,---,0.00,VWS V14.01,2013-05-05 10:11:00,
2013-05-05 03:16:00,52.0,44.3,30.02,ENE,57,0.0,0.0,75,0.00,,---,0.00,VWS V14.01,2013-05-05 10:16:00,
2013-05-05 03:21:00,51.9,44.2,30.02,ENE,57,0.0,0.0,75,0.00,,---,0.00,VWS V14.01,2013-05-05 10:21:00,
2013-05-05 03:26:00,51.8,44.5,30.01,ENE,57,0.0,0.0,76,0.00,,---,0.00,VWS V14.01,2013-05-05 10:26:00,
2013-05-05 03:31:00,51.8,44.5,30.01,ENE,57,0.0,0.0,76,0.00,,---,0.00,VWS V14.01,2013-05-05 10:31:00,
2013-05-05 03:36:00,51.7,44.4,30.01,ENE,57,0.0,0.0,76,0.00,,---,0.00,VWS V14.01,2013-05-05 10:36:00,
2013-05-05 03:41:00,51.7,44.4,30.01,ENE,57,0.0,1.0,76,0.00,,---,0.00,VWS V14.01,2013-05-05 10:41:00,
2013-05-05 03:46:00,51.5,44.5,30.01,ENE,57,1.0,2.0,77,0.00,,---,0.00,VWS V14.01,2013-05-05 10:46:00,
2013-05-05 03:51:00,51.4,44.4,30.01,ENE,57,0.0,2.0,77,0.00,,---,0.00,VWS V14.01,2013-05-05 10:51:00,
2013-05-05 03:56:00,51.4,44.4,30.01,ENE,57,0.0,0.0,77,0.00,,---,0.00,VWS V14.01,2013-05-05 10:56:00,
2013-05-05 04:01:00,51.4,44.8,30.01,ENE,57,0.0,0.0,78,0.00,,---,0.00,VWS V14.01,2013-05-05 11:01:00,
2013-05-05 04:06:00,51.4,44.4,30.01,ENE,57,0.0,3.0,77,0.00,,---,0.00,VWS V14.01,2013-05-05 11:06:00,
2013-05-05 04:11:00,51.4,44.4,30.01,ENE,61,1.0,3.0,77,0.00,,---,0.00,VWS V14.01,2013-05-05 11:11:00,
2013-05-05 04:16:00,51.3,44.3,30.01,ENE,62,0.0,1.0,77,0.00,,---,0.00,VWS V14.01,2013-05-05 11:16:00,
2013-05-05 04:21:00,51.3,44.3,30.01,ENE,62,1.0,2.0,77,0.00,,---,0.00,VWS V14.01,2013-05-05 11:21:00,
2013-05-05 04:26:00,51.3,44.3,30.00,ENE,62,1.0,3.0,77,0.00,,---,0.00,VWS V14.01,2013-05-05 11:26:00,
2013-05-05 04:31:00,51.3,44.7,30.00,ENE,62,0.0,0.0,78,0.00,,---,0.00,VWS V14.01,2013-05-05 11:31:00,
2013-05-05 04:36:00,51.2,44.9,30.00,ENE,62,1.0,2.0,79,0.00,,---,0.00,VWS V14.01,2013-05-05 11:36:00,
2013-05-05 04:41:00,51.0,44.7,30.00,ENE,62,2.0,3.0,79,0.00,,---,0.00,VWS V14.01,2013-05-05 11:41:00,
2013-05-05 04:46:00,50.9,44.6,30.00,ENE,62,4.0,4.0,79,0.00,,---,0.00,VWS V14.01,2013-05-05 11:46:00,
2013-05-05 04:51:00,50.9,44.6,30.00,NE,55,3.0,3.0,79,0.00,,---,0.00,VWS V14.01,2013-05-05 11:51:00,
2013-05-05 04:56:00,51.0,44.7,30.00,ENE,68,4.0,6.0,79,0.00,,---,0.00,VWS V14.01,2013-05-05 11:56:00,
2013-05-05 05:01:00,50.9,45.0,30.00,ENE,78,3.0,5.0,80,0.00,,---,0.00,VWS V14.01,2013-05-05 12:01:00,
2013-05-05 05:06:00,50.8,44.9,30.00,ENE,66,2.0,3.0,80,0.00,,---,0.00,VWS V14.01,2013-05-05 12:06:00,
2013-05-05 05:11:00,50.6,45.3,30.00,ENE,68,3.0,4.0,82,0.00,,---,0.00,VWS V14.01,2013-05-05 12:11:00,
2013-05-05 05:16:00,50.5,45.2,30.00,ENE,66,0.0,2.0,82,0.00,,---,0.00,VWS V14.01,2013-05-05 12:16:00,
2013-05-05 05:21:00,50.3,45.0,30.00,ENE,66,0.0,2.0,82,0.00,,---,0.00,VWS V14.01,2013-05-05 12:21:00,
2013-05-05 05:26:00,50.0,45.0,30.00,ENE,66,0.0,0.0,83,0.00,,---,0.00,VWS V14.01,2013-05-05 12:26:00,
2013-05-05 05:31:00,49.7,44.8,30.00,ENE,71,1.0,1.0,83,0.00,,---,0.00,VWS V14.01,2013-05-05 12:31:00,
2013-05-05 05:36:00,49.4,44.8,30.00,ENE,71,0.0,0.0,84,0.00,,---,0.00,VWS V14.01,2013-05-05 12:36:00,
2013-05-05 05:41:00,49.1,44.5,29.99,ENE,71,0.0,0.0,84,0.00,,---,0.00,VWS V14.01,2013-05-05 12:41:00,
2013-05-05 05:46:00,49.0,44.7,29.99,NE,56,4.0,6.0,85,0.00,,---,0.00,VWS V14.01,2013-05-05 12:46:00,
2013-05-05 05:51:00,48.9,44.9,30.00,ENE,57,4.0,5.0,86,0.00,,---,0.00,VWS V14.01,2013-05-05 12:51:00,
2013-05-05 05:56:00,49.0,45.0,29.99,ENE,78,2.0,4.0,86,0.00,,---,0.00,VWS V14.01,2013-05-05 12:56:00,
2013-05-05 06:01:00,49.0,44.7,29.99,ENE,78,1.0,3.0,85,0.00,,---,0.00,VWS V14.01,2013-05-05 13:01:00,
2013-05-05 06:06:00,48.9,44.6,29.99,East,89,2.0,2.0,85,0.00,,---,0.00,VWS V14.01,2013-05-05 13:06:00,
2013-05-05 06:11:00,48.6,44.6,29.99,East,89,2.0,2.0,86,0.00,,---,0.00,VWS V14.01,2013-05-05 13:11:00,
2013-05-05 06:16:00,48.5,44.5,29.99,East,89,0.0,0.0,86,0.00,,---,0.00,VWS V14.01,2013-05-05 13:16:00,
2013-05-05 06:21:00,48.4,44.7,29.99,East,89,2.0,3.0,87,0.00,,---,0.00,VWS V14.01,2013-05-05 13:21:00,
2013-05-05 06:26:00,48.3,44.6,30.00,ENE,57,2.0,4.0,87,0.00,,---,0.00,VWS V14.01,2013-05-05 13:26:00,
2013-05-05 06:31:00,48.3,44.9,30.00,NNE,28,3.0,4.0,88,0.00,,---,0.00,VWS V14.01,2013-05-05 13:31:00,
2013-05-05 06:36:00,48.2,44.5,30.00,NE,46,3.0,4.0,87,0.00,,---,0.00,VWS V14.01,2013-05-05 13:36:00,
2013-05-05 06:41:00,48.4,44.7,30.00,NE,55,2.0,3.0,87,0.00,,---,0.00,VWS V14.01,2013-05-05 13:41:00,
2013-05-05 06:46:00,48.6,44.6,30.00,NE,42,4.0,5.0,86,0.00,,---,0.00,VWS V14.01,2013-05-05 13:46:00,
2013-05-05 06:51:00,48.8,44.8,30.00,NE,42,2.0,3.0,86,0.00,,---,0.00,VWS V14.01,2013-05-05 13:51:00,
2013-05-05 06:56:00,48.9,44.9,30.00,NE,42,0.0,1.0,86,0.00,,---,0.00,VWS V14.01,2013-05-05 13:56:00,
2013-05-05 07:01:00,48.9,44.9,30.00,NE,55,1.0,3.0,86,0.00,,---,0.00,VWS V14.01,2013-05-05 14:01:00,
2013-05-05 07:06:00,48.9,44.9,29.99,NE,55,0.0,0.0,86,0.00,,---,0.00,VWS V14.01,2013-05-05 14:06:00,
2013-05-05 07:11:00,49.0,45.0,30.00,NE,55,1.0,2.0,86,0.00,,---,0.00,VWS V14.01,2013-05-05 14:11:00,
2013-05-05 07:16:00,49.0,45.0,29.99,NE,55,0.0,0.0,86,0.00,,---,0.00,VWS V14.01,2013-05-05 14:16:00,
2013-05-05 07:21:00,49.2,45.5,29.99,NE,54,3.0,5.0,87,0.00,,---,0.00,VWS V14.01,2013-05-05 14:21:00,
2013-05-05 07:26:00,49.4,45.7,29.99,NE,37,1.0,3.0,87,0.00,,---,0.00,VWS V14.01,2013-05-05 14:26:00,
2013-05-05 07:31:00,49.6,45.9,29.99,NE,37,1.0,2.0,87,0.00,,---,0.00,VWS V14.01,2013-05-05 14:31:00,
2013-05-05 07:36:00,49.7,46.0,29.99,NE,37,0.0,2.0,87,0.00,,---,0.00,VWS V14.01,2013-05-05 14:36:00,
2013-05-05 07:41:00,50.0,46.0,29.99,NE,37,1.0,2.0,86,0.00,,---,0.00,VWS V14.01,2013-05-05 14:41:00,
2013-05-05 07:46:00,50.3,46.3,29.99,NNE,33,0.0,2.0,86,0.00,,---,0.00,VWS V14.01,2013-05-05 14:46:00,
2013-05-05 07:51:00,50.6,46.3,29.99,NE,36,1.0,3.0,85,0.00,,---,0.00,VWS V14.01,2013-05-05 14:51:00,
2013-05-05 07:56:00,51.1,46.4,29.99,NE,36,2.0,3.0,84,0.00,,---,0.00,VWS V14.01,2013-05-05 14:56:00,
2013-05-05 08:01:00,51.6,46.6,29.99,NE,36,1.0,2.0,83,0.00,,---,0.00,VWS V14.01,2013-05-05 15:01:00,
2013-05-05 08:06:00,52.1,46.5,29.99,NE,36,0.0,1.0,81,0.00,,---,0.00,VWS V14.01,2013-05-05 15:06:00,
2013-05-05 08:11:00,52.5,46.5,29.99,NE,36,1.0,1.0,80,0.00,,---,0.00,VWS V14.01,2013-05-05 15:11:00,
2013-05-05 08:16:00,52.9,46.9,29.99,NE,36,0.0,0.0,80,0.00,,---,0.00,VWS V14.01,2013-05-05 15:16:00,
2013-05-05 08:21:00,53.3,47.0,29.98,NE,34,2.0,3.0,79,0.00,,---,0.00,VWS V14.01,2013-05-05 15:21:00,
2013-05-05 08:26:00,53.8,47.1,29.98,NE,34,2.0,2.0,78,0.00,,---,0.00,VWS V14.01,2013-05-05 15:26:00,
2013-05-05 08:31:00,54.3,47.2,29.98,NE,34,0.0,2.0,77,0.00,,---,0.00,VWS V14.01,2013-05-05 15:31:00,
2013-05-05 08:36:00,55.0,47.2,29.98,NE,34,1.0,2.0,75,0.00,,---,0.00,VWS V14.01,2013-05-05 15:36:00,
2013-05-05 08:41:00,56.0,47.8,29.98,NE,34,3.0,3.0,74,0.00,,---,0.00,VWS V14.01,2013-05-05 15:41:00,
2013-05-05 08:46:00,56.9,48.0,29.98,NE,34,1.0,2.0,72,0.00,,---,0.00,VWS V14.01,2013-05-05 15:46:00,
2013-05-05 08:51:00,57.9,48.2,29.98,NE,34,0.0,2.0,70,0.00,,---,0.00,VWS V14.01,2013-05-05 15:51:00,
2013-05-05 08:56:00,58.7,47.8,29.98,NE,34,1.0,3.0,67,0.00,,---,0.00,VWS V14.01,2013-05-05 15:56:00,
2013-05-05 09:01:00,59.4,48.5,29.98,NNE,33,2.0,4.0,67,0.00,,---,0.00,VWS V14.01,2013-05-05 16:01:00,
2013-05-05 09:06:00,60.2,48.0,29.98,NNE,28,1.0,3.0,64,0.00,,---,0.00,VWS V14.01,2013-05-05 16:06:00,
2013-05-05 09:11:00,60.9,48.2,29.98,NNE,28,3.0,3.0,63,0.00,,---,0.00,VWS V14.01,2013-05-05 16:11:00,
2013-05-05 09:16:00,61.5,47.9,29.97,North,355,3.0,4.0,61,0.00,,---,0.00,VWS V14.01,2013-05-05 16:16:00,
2013-05-05 09:21:00,62.1,48.1,29.97,North,355,2.0,3.0,60,0.00,,---,0.00,VWS V14.01,2013-05-05 16:21:00,
2013-05-05 09:26:00,62.8,48.7,29.97,North,355,3.0,3.0,60,0.00,,---,0.00,VWS V14.01,2013-05-05 16:26:00,
2013-05-05 09:31:00,63.4,47.9,29.97,North,355,1.0,1.0,57,0.00,,---,0.00,VWS V14.01,2013-05-05 16:31:00,
2013-05-05 09:36:00,63.8,48.3,29.97,North,355,0.0,2.0,57,0.00,,---,0.00,VWS V14.01,2013-05-05 16:36:00,
2013-05-05 09:41:00,64.6,48.1,29.97,North,355,0.0,2.0,55,0.00,,---,0.00,VWS V14.01,2013-05-05 16:41:00,
2013-05-05 09:46:00,65.8,49.7,29.97,North,360,1.0,3.0,56,0.00,,---,0.00,VWS V14.01,2013-05-05 16:46:00,
2013-05-05 09:51:00,66.5,48.9,29.96,North,360,1.0,2.0,53,0.00,,---,0.00,VWS V14.01,2013-05-05 16:51:00,
2013-05-05 09:56:00,66.8,50.1,29.96,North,350,4.0,4.0,55,0.00,,---,0.00,VWS V14.01,2013-05-05 16:56:00,
2013-05-05 10:01:00,66.5,50.3,29.96,NW,317,2.0,3.0,56,0.00,,---,0.00,VWS V14.01,2013-05-05 17:01:00,
2013-05-05 10:06:00,65.9,50.2,29.96,WNW,292,2.0,5.0,57,0.00,,---,0.00,VWS V14.01,2013-05-05 17:06:00,
2013-05-05 10:11:00,65.3,49.2,29.96,NW,308,3.0,4.0,56,0.00,,---,0.00,VWS V14.01,2013-05-05 17:11:00,
2013-05-05 10:16:00,64.9,48.8,29.96,WNW,296,3.0,5.0,56,0.00,,---,0.00,VWS V14.01,2013-05-05 17:16:00,
2013-05-05 10:21:00,64.9,48.8,29.96,West,263,4.0,5.0,56,0.00,,---,0.00,VWS V14.01,2013-05-05 17:21:00,
2013-05-05 10:26:00,64.9,50.2,29.96,WSW,251,2.0,5.0,59,0.00,,---,0.00,VWS V14.01,2013-05-05 17:26:00,
2013-05-05 10:31:00,65.2,50.1,29.96,WSW,251,0.0,0.0,58,0.00,,---,0.00,VWS V14.01,2013-05-05 17:31:00,
2013-05-05 10:36:00,66.2,50.5,29.96,WSW,251,1.0,2.0,57,0.00,,---,0.00,VWS V14.01,2013-05-05 17:36:00,
2013-05-05 10:41:00,66.5,50.8,29.96,WSW,251,1.0,2.0,57,0.00,,---,0.00,VWS V14.01,2013-05-05 17:41:00,
2013-05-05 10:46:00,66.8,51.6,29.96,WSW,251,2.0,2.0,58,0.00,,---,0.00,VWS V14.01,2013-05-05 17:46:00,
2013-05-05 10:51:00,67.3,51.1,29.96,WSW,254,2.0,3.0,56,0.00,,---,0.00,VWS V14.01,2013-05-05 17:51:00,
2013-05-05 10:56:00,68.0,50.8,29.95,WSW,252,3.0,4.0,54,0.00,,---,0.00,VWS V14.01,2013-05-05 17:56:00,
2013-05-05 11:01:00,68.6,51.3,29.95,WSW,254,0.0,3.0,54,0.00,,---,0.00,VWS V14.01,2013-05-05 18:01:00,
2013-05-05 11:06:00,69.1,50.8,29.95,WSW,254,2.0,3.0,52,0.00,,---,0.00,VWS V14.01,2013-05-05 18:06:00,
2013-05-05 11:11:00,69.5,51.1,29.95,West,262,0.0,3.0,52,0.00,,---,0.00,VWS V14.01,2013-05-05 18:11:00,
2013-05-05 11:16:00,70.2,51.2,29.95,West,262,2.0,3.0,51,0.00,,---,0.00,VWS V14.01,2013-05-05 18:16:00,
2013-05-05 11:21:00,70.7,50.1,29.95,WSW,240,2.0,5.0,48,0.00,,---,0.00,VWS V14.01,2013-05-05 18:21:00,
2013-05-05 11:26:00,70.9,50.2,29.95,West,265,4.0,4.0,48,0.00,,---,0.00,VWS V14.01,2013-05-05 18:26:00,
2013-05-05 11:31:00,71.1,49.9,29.94,WNW,300,4.0,5.0,47,0.00,,---,0.00,VWS V14.01,2013-05-05 18:31:00,
2013-05-05 11:36:00,71.6,49.2,29.94,WSW,250,4.0,4.0,45,0.00,,---,0.00,VWS V14.01,2013-05-05 18:36:00,
2013-05-05 11:41:00,71.9,48.8,29.94,WSW,253,1.0,3.0,44,0.00,,---,0.00,VWS V14.01,2013-05-05 18:41:00,
2013-05-05 11:46:00,72.1,49.6,29.94,WNW,282,2.0,5.0,45,0.00,,---,0.00,VWS V14.01,2013-05-05 18:46:00,
2013-05-05 11:51:00,72.6,49.5,29.94,West,268,0.0,5.0,44,0.00,,---,0.00,VWS V14.01,2013-05-05 18:51:00,
2013-05-05 11:56:00,72.9,48.5,29.93,West,281,3.0,5.0,42,0.00,,---,0.00,VWS V14.01,2013-05-05 18:56:00,
2013-05-05 12:01:00,73.0,49.2,29.93,WSW,247,5.0,5.0,43,0.00,,---,0.00,VWS V14.01,2013-05-05 19:01:00,
2013-05-05 12:06:00,73.2,48.8,29.93,West,278,4.0,6.0,42,0.00,,---,0.00,VWS V14.01,2013-05-05 19:06:00,
2013-05-05 12:11:00,73.5,48.4,29.93,West,261,5.0,6.0,41,0.00,,---,0.00,VWS V14.01,2013-05-05 19:11:00,
2013-05-05 12:16:00,73.7,49.2,29.92,West,271,5.0,6.0,42,0.00,,---,0.00,VWS V14.01,2013-05-05 19:16:00,
2013-05-05 12:21:00,74.3,48.4,29.92,WSW,255,5.0,8.0,40,0.00,,---,0.00,VWS V14.01,2013-05-05 19:21:00,
2013-05-05 12:26:00,74.5,47.2,29.92,SSW,209,2.0,7.0,38,0.00,,---,0.00,VWS V14.01,2013-05-05 19:26:00,
2013-05-05 12:31:00,74.8,47.5,29.91,SW,222,7.0,9.0,38,0.00,,---,0.00,VWS V14.01,2013-05-05 19:31:00,
2013-05-05 12:36:00,75.0,47.0,29.91,West,270,9.0,12.0,37,0.00,,---,0.00,VWS V14.01,2013-05-05 19:36:00,
2013-05-05 12:41:00,75.3,48.0,29.91,West,279,5.0,9.0,38,0.00,,---,0.00,VWS V14.01,2013-05-05 19:41:00,
2013-05-05 12:46:00,75.9,49.2,29.91,NNW,345,5.0,7.0,39,0.00,,---,0.00,VWS V14.01,2013-05-05 19:46:00,
2013-05-05 12:51:00,76.7,48.5,29.90,NW,311,8.0,10.0,37,0.00,,---,0.00,VWS V14.01,2013-05-05 19:51:00,
2013-05-05 12:56:00,77.5,49.9,29.90,North,355,5.0,5.0,38,0.00,,---,0.00,VWS V14.01,2013-05-05 19:56:00,
2013-05-05 13:01:00,78.3,48.4,29.90,WSW,254,7.0,9.0,35,0.00,,---,0.00,VWS V14.01,2013-05-05 20:01:00,
2013-05-05 13:06:00,77.6,48.6,29.90,West,274,7.0,10.0,36,0.00,,---,0.00,VWS V14.01,2013-05-05 20:06:00,
2013-05-05 13:11:00,77.1,48.1,29.90,West,262,8.0,11.0,36,0.00,,---,0.00,VWS V14.01,2013-05-05 20:11:00,
2013-05-05 13:16:00,77.0,49.5,29.90,West,261,3.0,7.0,38,0.00,,---,0.00,VWS V14.01,2013-05-05 20:16:00,
2013-05-05 13:21:00,77.8,48.7,29.90,North,349,9.0,10.0,36,0.00,,---,0.00,VWS V14.01,2013-05-05 20:21:00,
2013-05-05 13:26:00,78.4,47.7,29.89,WNW,299,8.0,9.0,34,0.00,,---,0.00,VWS V14.01,2013-05-05 20:26:00,
2013-05-05 13:31:00,79.0,47.5,29.89,North,355,7.0,9.0,33,0.00,,---,0.00,VWS V14.01,2013-05-05 20:31:00,
2013-05-05 13:36:00,79.7,46.4,29.89,WNW,300,2.0,9.0,31,0.00,,---,0.00,VWS V14.01,2013-05-05 20:36:00,
2013-05-05 13:41:00,80.1,47.6,29.89,North,5,3.0,10.0,32,0.00,,---,0.00,VWS V14.01,2013-05-05 20:41:00,
2013-05-05 13:46:00,80.6,47.2,29.89,NNW,342,6.0,7.0,31,0.00,,---,0.00,VWS V14.01,2013-05-05 20:46:00,
2013-05-05 13:51:00,80.7,48.1,29.89,West,270,7.0,9.0,32,0.00,,---,0.00,VWS V14.01,2013-05-05 20:51:00,
2013-05-05 13:56:00,80.6,48.0,29.89,NW,311,7.0,10.0,32,0.00,,---,0.00,VWS V14.01,2013-05-05 20:56:00,
2013-05-05 14:01:00,80.9,49.1,29.89,NNW,342,4.0,5.0,33,0.00,,---,0.00,VWS V14.01,2013-05-05 21:01:00,
2013-05-05 14:06:00,81.4,47.9,29.88,West,279,1.0,8.0,31,0.00,,---,0.00,VWS V14.01,2013-05-05 21:06:00,
2013-05-05 14:11:00,81.3,46.9,29.88,NW,304,3.0,11.0,30,0.00,,---,0.00,VWS V14.01,2013-05-05 21:11:00,
2013-05-05 14:16:00,81.1,48.5,29.88,NW,308,8.0,11.0,32,0.00,,---,0.00,VWS V14.01,2013-05-05 21:16:00,
2013-05-05 14:21:00,81.0,49.2,29.88,NNW,329,7.0,10.0,33,0.00,,---,0.00,VWS V14.01,2013-05-05 21:21:00,
2013-05-05 14:26:00,81.4,48.7,29.88,NNW,336,6.0,12.0,32,0.00,,---,0.00,VWS V14.01,2013-05-05 21:26:00,
2013-05-05 14:31:00,81.4,47.9,29.88,NNW,335,6.0,12.0,31,0.00,,---,0.00,VWS V14.01,2013-05-05 21:31:00,
2013-05-05 14:37:00,81.4,48.7,29.87,North,349,7.0,7.0,32,0.00,,---,0.00,VWS V14.01,2013-05-05 21:37:00,
2013-05-05 14:42:00,81.3,48.7,29.87,WNW,303,6.0,12.0,32,0.00,,---,0.00,VWS V14.01,2013-05-05 21:42:00,
2013-05-05 14:47:00,81.4,49.6,29.87,NW,305,7.0,8.0,33,0.00,,---,0.00,VWS V14.01,2013-05-05 21:47:00,
2013-05-05 14:52:00,81.5,48.8,29.86,West,274,5.0,10.0,32,0.00,,---,0.00,VWS V14.01,2013-05-05 21:52:00,
2013-05-05 14:57:00,81.1,47.6,29.86,West,276,4.0,7.0,31,0.00,,---,0.00,VWS V14.01,2013-05-05 21:57:00,
2013-05-05 15:02:00,80.9,47.5,29.86,West,281,6.0,7.0,31,0.00,,---,0.00,VWS V14.01,2013-05-05 22:02:00,
2013-05-05 15:07:00,81.4,47.9,29.86,West,268,2.0,10.0,31,0.00,,---,0.00,VWS V14.01,2013-05-05 22:07:00,
2013-05-05 15:12:00,81.8,47.4,29.86,WNW,289,6.0,8.0,30,0.00,,---,0.00,VWS V14.01,2013-05-05 22:12:00,
2013-05-05 15:17:00,82.0,45.7,29.86,WNW,295,8.0,14.0,28,0.00,,---,0.00,VWS V14.01,2013-05-05 22:17:00,
2013-05-05 15:22:00,81.7,46.4,29.85,WNW,288,9.0,10.0,29,0.00,,---,0.00,VWS V14.01,2013-05-05 22:22:00,
2013-05-05 15:27:00,82.2,47.7,29.85,NW,315,8.0,10.0,30,0.00,,---,0.00,VWS V14.01,2013-05-05 22:27:00,
2013-05-05 15:32:00,82.0,45.7,29.85,NW,315,7.0,9.0,28,0.00,,---,0.00,VWS V14.01,2013-05-05 22:32:00,
2013-05-05 15:37:00,81.9,45.6,29.85,NW,308,9.0,9.0,28,0.00,,---,0.00,VWS V14.01,2013-05-05 22:37:00,
2013-05-05 15:42:00,82.1,45.8,29.85,WNW,288,12.0,12.0,28,0.00,,---,0.00,VWS V14.01,2013-05-05 22:42:00,
2013-05-05 15:47:00,81.9,45.6,29.85,West,265,9.0,10.0,28,0.00,,---,0.00,VWS V14.01,2013-05-05 22:47:00,
2013-05-05 15:52:00,82.0,45.7,29.85,West,276,5.0,8.0,28,0.00,,---,0.00,VWS V14.01,2013-05-05 22:52:00,
2013-05-05 15:57:00,82.1,44.8,29.85,WNW,295,11.0,12.0,27,0.00,,---,0.00,VWS V14.01,2013-05-05 22:57:00,
2013-05-05 16:02:00,81.8,45.5,29.84,West,262,11.0,13.0,28,0.00,,---,0.00,VWS V14.01,2013-05-05 23:02:00,
2013-05-05 16:07:00,81.8,46.5,29.84,West,265,7.0,7.0,29,0.00,,---,0.00,VWS V14.01,2013-05-05 23:07:00,
2013-05-05 16:12:00,82.1,45.8,29.84,WSW,250,4.0,10.0,28,0.00,,---,0.00,VWS V14.01,2013-05-05 23:12:00,
2013-05-05 16:17:00,82.3,46.0,29.84,West,271,7.0,12.0,28,0.00,,---,0.00,VWS V14.01,2013-05-05 23:17:00,
2013-05-05 16:22:00,82.3,46.9,29.84,West,277,8.0,8.0,29,0.00,,---,0.00,VWS V14.01,2013-05-05 23:22:00,
2013-05-05 16:27:00,82.6,47.2,29.84,WSW,258,8.0,13.0,29,0.00,,---,0.00,VWS V14.01,2013-05-05 23:27:00,
2013-05-05 16:32:00,82.4,47.0,29.83,NNW,332,6.0,7.0,29,0.00,,---,0.00,VWS V14.01,2013-05-05 23:32:00,
2013-05-05 16:37:00,83.1,48.5,29.83,West,281,3.0,7.0,30,0.00,,---,0.00,VWS V14.01,2013-05-05 23:37:00,
2013-05-05 16:42:00,83.4,47.8,29.83,West,263,10.0,10.0,29,0.00,,---,0.00,VWS V14.01,2013-05-05 23:42:00,
2013-05-05 16:47:00,83.0,46.6,29.83,NW,316,4.0,11.0,28,0.00,,---,0.00,VWS V14.01,2013-05-05 23:47:00,
2013-05-05 16:52:00,83.0,47.5,29.83,West,268,8.0,8.0,29,0.00,,---,0.00,VWS V14.01,2013-05-05 23:52:00,
2013-05-05 16:57:00,82.9,48.3,29.82,NW,311,5.0,8.0,30,0.00,,---,0.00,VWS V14.01,2013-05-05 23:57:00,
2013-05-05 17:02:00,83.0,45.6,29.82,WNW,289,2.0,9.0,27,0.00,,---,0.00,VWS V14.01,2013-05-06 00:02:00,
2013-05-05 17:07:00,83.0,46.6,29.82,West,271,9.0,11.0,28,0.00,,---,0.00,VWS V14.01,2013-05-06 00:07:00,
2013-05-05 17:12:00,83.3,46.8,29.82,NNW,338,8.0,9.0,28,0.00,,---,0.00,VWS V14.01,2013-05-06 00:12:00,
2013-05-05 17:17:00,83.7,47.2,29.82,WNW,286,3.0,8.0,28,0.00,,---,0.00,VWS V14.01,2013-05-06 00:17:00,
2013-05-05 17:22:00,84.1,47.5,29.82,NNW,345,13.0,13.0,28,0.00,,---,0.00,VWS V14.01,2013-05-06 00:22:00,
2013-05-05 17:27:00,84.4,47.8,29.82,NNW,346,8.0,13.0,28,0.00,,---,0.00,VWS V14.01,2013-05-06 00:27:00,
2013-05-05 17:32:00,84.4,46.8,29.82,NNW,341,7.0,11.0,27,0.00,,---,0.00,VWS V14.01,2013-05-06 00:32:00,
2013-05-05 17:37:00,84.3,45.7,29.82,NNW,346,6.0,10.0,26,0.00,,---,0.00,VWS V14.01,2013-05-06 00:37:00,
2013-05-05 17:42:00,84.3,47.7,29.82,NW,310,5.0,7.0,28,0.00,,---,0.00,VWS V14.01,2013-05-06 00:42:00,
2013-05-05 17:47:00,84.7,45.0,29.82,North,355,7.0,12.0,25,0.00,,---,0.00,VWS V14.01,2013-05-06 00:47:00,
2013-05-05 17:52:00,84.5,43.8,29.81,WNW,299,8.0,9.0,24,0.00,,---,0.00,VWS V14.01,2013-05-06 00:52:00,
2013-05-05 17:57:00,84.3,42.5,29.82,NW,324,7.0,8.0,23,0.00,,---,0.00,VWS V14.01,2013-05-06 00:57:00,
2013-05-05 18:02:00,84.2,42.4,29.82,NW,316,7.0,10.0,23,0.00,,---,0.00,VWS V14.01,2013-05-06 01:02:00,
2013-05-05 18:07:00,84.3,43.6,29.82,NW,317,7.0,10.0,24,0.00,,---,0.00,VWS V14.01,2013-05-06 01:07:00,
2013-05-05 18:12:00,84.3,42.5,29.82,NW,316,5.0,9.0,23,0.00,,---,0.00,VWS V14.01,2013-05-06 01:12:00,
2013-05-05 18:17:00,84.0,42.3,29.82,NW,319,7.0,8.0,23,0.00,,---,0.00,VWS V14.01,2013-05-06 01:17:00,
2013-05-05 18:22:00,84.1,42.3,29.82,NW,324,5.0,6.0,23,0.00,,---,0.00,VWS V14.01,2013-05-06 01:22:00,
2013-05-05 18:27:00,84.4,42.6,29.82,North,351,5.0,6.0,23,0.00,,---,0.00,VWS V14.01,2013-05-06 01:27:00,
2013-05-05 18:32:00,84.1,42.3,29.81,NNW,335,9.0,12.0,23,0.00,,---,0.00,VWS V14.01,2013-05-06 01:32:00,
2013-05-05 18:37:00,83.8,43.2,29.81,NNW,330,3.0,4.0,24,0.00,,---,0.00,VWS V14.01,2013-05-06 01:37:00,
2013-05-05 18:42:00,84.1,44.5,29.81,NW,325,7.0,8.0,25,0.00,,---,0.00,VWS V14.01,2013-05-06 01:42:00,
2013-05-05 18:47:00,84.0,43.4,29.81,NNW,342,6.0,8.0,24,0.00,,---,0.00,VWS V14.01,2013-05-06 01:47:00,
2013-05-05 18:52:00,83.6,41.9,29.81,NW,323,8.0,12.0,23,0.00,,---,0.00,VWS V14.01,2013-05-06 01:52:00,
2013-05-05 18:57:00,82.9,42.4,29.81,NNW,331,6.0,9.0,24,0.00,,---,0.00,VWS V14.01,2013-05-06 01:57:00,
2013-05-05 19:02:00,82.8,43.4,29.81,NNW,334,5.0,5.0,25,0.00,,---,0.00,VWS V14.01,2013-05-06 02:02:00,
2013-05-05 19:07:00,82.9,43.5,29.81,NNW,346,5.0,5.0,25,0.00,,---,0.00,VWS V14.01,2013-05-06 02:07:00,
2013-05-05 19:12:00,82.8,44.5,29.82,NW,317,2.0,5.0,26,0.00,,---,0.00,VWS V14.01,2013-05-06 02:12:00,
2013-05-05 19:17:00,83.0,44.6,29.82,North,355,3.0,6.0,26,0.00,,---,0.00,VWS V14.01,2013-05-06 02:17:00,
2013-05-05 19:22:00,82.6,44.3,29.82,NNW,334,2.0,9.0,26,0.00,,---,0.00,VWS V14.01,2013-05-06 02:22:00,
2013-05-05 19:27:00,82.1,44.8,29.82,NNW,344,4.0,6.0,27,0.00,,---,0.00,VWS V14.01,2013-05-06 02:27:00,
2013-05-05 19:32:00,81.9,44.7,29.82,NNW,341,3.0,5.0,27,0.00,,---,0.00,VWS V14.01,2013-05-06 02:32:00,
2013-05-05 19:37:00,81.7,44.5,29.82,NW,323,1.0,5.0,27,0.00,,---,0.00,VWS V14.01,2013-05-06 02:37:00,
2013-05-05 19:42:00,81.6,45.4,29.82,NNW,340,0.0,2.0,28,0.00,,---,0.00,VWS V14.01,2013-05-06 02:42:00,
2013-05-05 19:47:00,81.7,46.4,29.82,NNW,340,2.0,2.0,29,0.00,,---,0.00,VWS V14.01,2013-05-06 02:47:00,
2013-05-05 19:52:00,81.8,45.5,29.82,NNW,340,1.0,2.0,28,0.00,,---,0.00,VWS V14.01,2013-05-06 02:52:00,
2013-05-05 19:57:00,81.7,45.5,29.82,NNW,340,1.0,2.0,28,0.00,,---,0.00,VWS V14.01,2013-05-06 02:57:00,
2013-05-05 20:02:00,81.3,45.1,29.82,NNW,340,0.0,1.0,28,0.00,,---,0.00,VWS V14.01,2013-05-06 03:02:00,
2013-05-05 20:07:00,80.9,45.7,29.82,NNW,340,0.0,1.0,29,0.00,,---,0.00,VWS V14.01,2013-05-06 03:07:00,
2013-05-05 20:12:00,80.6,45.4,29.82,NNW,340,0.0,1.0,29,0.00,,---,0.00,VWS V14.01,2013-05-06 03:12:00,
2013-05-05 20:17:00,80.1,45.0,29.82,NNW,340,0.0,1.0,29,0.00,,---,0.00,VWS V14.01,2013-05-06 03:17:00,
2013-05-05 20:22:00,79.5,45.4,29.82,NNW,340,0.0,0.0,30,0.00,,---,0.00,VWS V14.01,2013-05-06 03:22:00,
2013-05-05 20:27:00,78.7,45.6,29.82,NNE,21,1.0,1.0,31,0.00,,---,0.00,VWS V14.01,2013-05-06 03:27:00,
2013-05-05 20:32:00,77.9,44.9,29.82,NNE,21,0.0,0.0,31,0.00,,---,0.00,VWS V14.01,2013-05-06 03:32:00,
2013-05-05 20:37:00,77.2,45.1,29.82,NNE,21,1.0,1.0,32,0.00,,---,0.00,VWS V14.01,2013-05-06 03:37:00,
2013-05-05 20:42:00,76.5,46.1,29.82,NNE,21,0.0,1.0,34,0.00,,---,0.00,VWS V14.01,2013-05-06 03:42:00,
2013-05-05 20:47:00,75.8,45.5,29.82,NNE,21,2.0,3.0,34,0.00,,---,0.00,VWS V14.01,2013-05-06 03:47:00,
2013-05-05 20:53:00,75.2,46.4,29.82,NNE,21,0.0,1.0,36,0.00,,---,0.00,VWS V14.01,2013-05-06 03:53:00,
2013-05-05 20:58:00,74.8,46.8,29.82,NNE,21,2.0,2.0,37,0.00,,---,0.00,VWS V14.01,2013-05-06 03:58:00,
2013-05-05 21:01:00,74.5,46.5,29.82,NNE,21,3.0,3.0,37,0.00,,---,0.00,VWS V14.01,2013-05-06 04:01:00,
2013-05-05 21:02:00,74.5,46.5,29.82,North,360,0.0,4.0,37,0.00,,---,0.00,VWS V14.01,2013-05-06 04:02:00,
2013-05-05 21:03:00,74.4,46.5,29.82,North,360,1.0,2.0,37,0.00,,---,0.00,VWS V14.01,2013-05-06 04:03:00,
2013-05-05 21:06:00,74.1,46.9,29.83,North,360,1.0,2.0,38,0.00,,---,0.00,VWS V14.01,2013-05-06 04:06:00,
2013-05-05 21:11:00,73.7,46.5,29.83,North,360,1.0,2.0,38,0.00,,---,0.00,VWS V14.01,2013-05-06 04:11:00,
2013-05-05 21:16:00,73.4,47.0,29.83,North,5,2.0,3.0,39,0.00,,---,0.00,VWS V14.01,2013-05-06 04:16:00,
2013-05-05 21:21:00,73.2,47.5,29.83,North,5,2.0,3.0,40,0.00,,---,0.00,VWS V14.01,2013-05-06 04:21:00,
2013-05-05 21:26:00,73.0,47.9,29.83,North,5,1.0,2.0,41,0.00,,---,0.00,VWS V14.01,2013-05-06 04:26:00,
2013-05-05 21:31:00,72.7,48.3,29.83,North,5,2.0,2.0,42,0.00,,---,0.00,VWS V14.01,2013-05-06 04:31:00,
2013-05-05 21:36:00,72.5,48.1,29.83,North,5,0.0,1.0,42,0.00,,---,0.00,VWS V14.01,2013-05-06 04:36:00,
2013-05-05 21:41:00,72.1,48.4,29.83,North,5,1.0,2.0,43,0.00,,---,0.00,VWS V14.01,2013-05-06 04:41:00,
2013-05-05 21:46:00,71.7,48.0,29.84,NNE,13,2.0,2.0,43,0.00,,---,0.00,VWS V14.01,2013-05-06 04:46:00,
2013-05-05 21:51:00,71.6,47.9,29.84,NNE,15,1.0,3.0,43,0.00,,---,0.00,VWS V14.01,2013-05-06 04:51:00,
2013-05-05 21:56:00,71.5,47.8,29.83,NNE,15,2.0,2.0,43,0.00,,---,0.00,VWS V14.01,2013-05-06 04:56:00,
2013-05-05 22:01:00,71.3,48.3,29.84,NNE,15,1.0,2.0,44,0.00,,---,0.00,VWS V14.01,2013-05-06 05:01:00,
2013-05-05 22:06:00,71.0,48.0,29.84,NNE,15,2.0,2.0,44,0.00,,---,0.00,VWS V14.01,2013-05-06 05:06:00,
2013-05-05 22:11:00,70.7,48.3,29.83,NNE,15,3.0,3.0,45,0.00,,---,0.00,VWS V14.01,2013-05-06 05:11:00,
2013-05-05 22:16:00,70.0,48.3,29.84,ENE,63,5.0,5.0,46,0.00,,---,0.00,VWS V14.01,2013-05-06 05:16:00,
2013-05-05 22:21:00,69.3,48.2,29.84,ENE,68,3.0,5.0,47,0.00,,---,0.00,VWS V14.01,2013-05-06 05:21:00,
2013-05-05 22:26:00,68.9,49.0,29.84,ENE,59,4.0,6.0,49,0.00,,---,0.00,VWS V14.01,2013-05-06 05:26:00,
2013-05-05 22:31:00,68.5,49.2,29.84,NE,51,4.0,5.0,50,0.00,,---,0.00,VWS V14.01,2013-05-06 05:31:00,
2013-05-05 22:36:00,67.9,49.1,29.84,ENE,67,5.0,5.0,51,0.00,,---,0.00,VWS V14.01,2013-05-06 05:36:00,
2013-05-05 22:41:00,67.2,49.0,29.84,ENE,71,3.0,4.0,52,0.00,,---,0.00,VWS V14.01,2013-05-06 05:41:00,
2013-05-05 22:46:00,66.8,49.1,29.84,ENE,65,2.0,5.0,53,0.00,,---,0.00,VWS V14.01,2013-05-06 05:46:00,
2013-05-05 22:51:00,66.3,49.2,29.84,East,82,3.0,4.0,54,0.00,,---,0.00,VWS V14.01,2013-05-06 05:51:00,
2013-05-05 22:56:00,65.8,49.2,29.84,ENE,71,5.0,5.0,55,0.00,,---,0.00,VWS V14.01,2013-05-06 05:56:00,
2013-05-05 23:01:00,65.4,48.8,29.84,ENE,68,4.0,5.0,55,0.00,,---,0.00,VWS V14.01,2013-05-06 06:01:00,
2013-05-05 23:06:00,65.0,48.9,29.84,East,91,5.0,6.0,56,0.00,,---,0.00,VWS V14.01,2013-05-06 06:06:00,
2013-05-05 23:11:00,64.5,49.0,29.84,East,79,1.0,3.0,57,0.00,,---,0.00,VWS V14.01,2013-05-06 06:11:00,
2013-05-05 23:16:00,64.1,48.6,29.84,ENE,59,3.0,3.0,57,0.00,,---,0.00,VWS V14.01,2013-05-06 06:16:00,
2013-05-05 23:21:00,63.7,48.7,29.84,ENE,63,3.0,3.0,58,0.00,,---,0.00,VWS V14.01,2013-05-06 06:21:00,
2013-05-05 23:26:00,63.2,49.1,29.84,ENE,61,0.0,3.0,60,0.00,,---,0.00,VWS V14.01,2013-05-06 06:26:00,
2013-05-05 23:31:00,62.8,48.3,29.84,ENE,67,4.0,4.0,59,0.00,,---,0.00,VWS V14.01,2013-05-06 06:31:00,
2013-05-05 23:36:00,62.4,48.3,29.85,ENE,74,4.0,4.0,60,0.00,,---,0.00,VWS V14.01,2013-05-06 06:36:00,
2013-05-05 23:41:00,62.1,47.6,29.85,ENE,76,2.0,4.0,59,0.00,,---,0.00,VWS V14.01,2013-05-06 06:41:00,
2013-05-05 23:46:00,61.8,47.8,29.85,NE,55,2.0,5.0,60,0.00,,---,0.00,VWS V14.01,2013-05-06 06:46:00,
2013-05-05 23:51:00,61.6,47.2,29.85,ENE,71,3.0,6.0,59,0.00,,---,0.00,VWS V14.01,2013-05-06 06:51:00,
2013-05-05 23:56:00,61.3,47.3,29.85,ENE,74,5.0,5.0,60,0.00,,---,0.00,VWS V14.01,2013-05-06 06:56:00,